| time (UTC) | temp C | wind direction | speed KPH | gust KPH | rain 1hr cm | rain 24hr cm | rain mn cm | humidity % | barometer mb |
| 20260505193003 | 20 | 204 | 4.8 | 16.1 | 0.00 | 0.05 | 0.05 | 70 | 1006.9 |
| 20260505191502 | 20 | 245 | 4.8 | 14.5 | 0.00 | 0.05 | 0.05 | 70 | 1007.0 |
| 20260505190005 | 20 | 220 | 4.8 | 19.3 | 0.00 | 0.05 | 0.05 | 70 | 1007.0 |
| 20260505184503 | 20 | 110 | 6.4 | 16.1 | 0.00 | 0.05 | 0.05 | 69 | 1007.3 |
| 20260505183003 | 20 | 271 | 3.2 | 11.3 | 0.00 | 0.05 | 0.05 | 70 | 1007.5 |
| 20260505181502 | 20 | 198 | 3.2 | 12.9 | 0.00 | 0.05 | 0.05 | 69 | 1007.8 |
| 20260505180003 | 20 | 121 | 3.2 | 14.5 | 0.00 | 0.05 | 0.05 | 69 | 1006.9 |
| 20260505174502 | 20 | 244 | 4.8 | 12.9 | 0.00 | 0.05 | 0.05 | 69 | 1007.9 |
| 20260505173002 | 20 | 261 | 4.8 | 11.3 | 0.00 | 0.05 | 0.05 | 68 | 1008.0 |
| 20260505171503 | 19 | 197 | 4.8 | 16.1 | 0.00 | 0.05 | 0.05 | 68 | 1008.1 |
| 20260505170005 | 19 | 94 | 6.4 | 22.5 | 0.00 | 0.05 | 0.05 | 68 | 1008.1 |
| 20260505170003 | 19 | 94 | 4.8 | 22.5 | 0.00 | 0.05 | 0.05 | 68 | 1007.3 |
| 20260505163002 | 20 | 281 | 4.8 | 11.3 | 0.00 | 0.05 | 0.05 | 68 | 1008.2 |
| 20260505161502 | 20 | 257 | 3.2 | 11.3 | 0.00 | 0.05 | 0.05 | 68 | 1008.2 |
| 20260505153002 | 19 | 242 | 8.0 | 19.3 | 0.00 | 0.05 | 0.05 | 70 | 1008.0 |
| 20260505151502 | 19 | 109 | 4.8 | 14.5 | 0.00 | 0.05 | 0.05 | 70 | 1008.0 |
| 20260505124503 | 15 | 246 | 1.6 | 8.0 | 0.00 | 0.05 | 0.05 | 91 | 1007.8 |
| 20260505121502 | 14 | 253 | 1.6 | 8.0 | 0.03 | 0.05 | 0.05 | 93 | 1008.0 |
| 20260505120005 | 13 | 239 | 1.6 | 8.0 | 0.03 | 0.05 | 0.05 | 94 | 1008.0 |
| 20260505120003 | 13 | 239 | 1.6 | 8.0 | 0.03 | 0.05 | 0.05 | 94 | 1007.2 |
| 20260505114502 | 13 | 200 | 1.6 | 8.0 | 0.03 | 0.05 | 0.05 | 93 | 1007.9 |
| 20260505113002 | 13 | 141 | 4.8 | 9.7 | 0.05 | 0.05 | 0.05 | 92 | 1007.1 |
| 20260505111502 | 13 | 145 | 1.6 | 4.8 | 0.03 | 0.03 | 0.03 | 92 | 1007.5 |
| 20260505100005 | 17 | 308 | 1.6 | 8.0 | 0.00 | 0.00 | 0.00 | 70 | 1007.5 |
| 20260505100003 | 17 | 308 | 1.6 | 8.0 | 0.00 | 0.00 | 0.00 | 70 | 1006.7 |
| 20260505091501 | 17 | 242 | 3.2 | 11.3 | 0.00 | 0.00 | 0.00 | 68 | 1006.7 |
| 20260505090004 | 17 | 250 | 1.6 | 8.0 | 0.00 | 0.00 | 0.00 | 68 | 1006.5 |
| 20260505090002 | 17 | 250 | 1.6 | 8.0 | 0.00 | 0.00 | 0.00 | 68 | 1005.8 |
| 20260505083002 | 17 | 131 | 1.6 | 8.0 | 0.00 | 0.00 | 0.00 | 68 | 1006.2 |
| 20260505081503 | 17 | 188 | 1.6 | 11.3 | 0.00 | 0.00 | 0.00 | 67 | 1006.1 |
| 20260505080004 | 17 | 261 | 1.6 | 11.3 | 0.00 | 0.00 | 0.00 | 67 | 1006.1 |
| 20260505074503 | 17 | 264 | 1.6 | 8.0 | 0.00 | 0.00 | 0.00 | 67 | 1006.0 |
| 20260505071503 | 17 | 244 | 1.6 | 11.3 | 0.00 | 0.00 | 0.00 | 66 | 1005.6 |
| 20260505070004 | 17 | 126 | 3.2 | 9.7 | 0.00 | 0.00 | 0.00 | 66 | 1005.5 |
| 20260505063003 | 18 | 237 | 3.2 | 11.3 | 0.00 | 0.00 | 0.00 | 66 | 1005.7 |
| 20260505060012 | 18 | 240 | 1.6 | 11.3 | 0.00 | 0.00 | 0.00 | 66 | 1004.7 |
| 20260505060004 | 18 | 240 | 4.8 | 11.3 | 0.00 | 0.00 | 0.00 | 66 | 1005.3 |
| 20260505054503 | 18 | 131 | 4.8 | 17.7 | 0.00 | 0.00 | 0.00 | 65 | 1005.1 |
| 20260505053003 | 18 | 244 | 3.2 | 8.0 | 0.00 | 0.00 | 0.00 | 66 | 1005.0 |
| 20260505051502 | 18 | 235 | 3.2 | 9.7 | 0.00 | 0.00 | 0.00 | 66 | 1005.3 |
| 20260505041501 | 18 | 132 | 1.6 | 6.4 | 0.00 | 0.00 | 0.00 | 66 | 1005.0 |
| 20260505040006 | 18 | 260 | 1.6 | 6.4 | 0.00 | 0.00 | 0.00 | 67 | 1005.6 |
| 20260505034501 | 19 | 153 | 1.6 | 8.0 | 0.00 | 0.00 | 0.00 | 65 | 1005.0 |
| 20260505033002 | 19 | 127 | 4.8 | 14.5 | 0.00 | 0.00 | 0.00 | 64 | 1005.4 |
| 20260505031502 | 19 | 274 | 3.2 | 12.9 | 0.00 | 0.00 | 0.00 | 65 | 1005.5 |
| 20260505031500 | 19 | 274 | 1.6 | 12.9 | 0.00 | 0.00 | 0.00 | 65 | 1005.0 |
| 20260505030005 | 19 | 231 | 3.2 | 11.3 | 0.00 | 0.00 | 0.00 | 65 | 1005.3 |
| 20260505024503 | 19 | 192 | 4.8 | 11.3 | 0.00 | 0.00 | 0.00 | 64 | 1005.1 |
| 20260505024501 | 19 | 192 | 3.2 | 11.3 | 0.00 | 0.00 | 0.00 | 64 | 1004.6 |
| 20260505023001 | 19 | 233 | 1.6 | 8.0 | 0.00 | 0.00 | 0.00 | 63 | 1004.5 |
| 20260505021502 | 20 | 200 | 3.2 | 8.0 | 0.00 | 0.00 | 0.00 | 62 | 1004.8 |
| 20260505021500 | 20 | 200 | 1.6 | 8.0 | 0.00 | 0.00 | 0.00 | 62 | 1004.3 |
| 20260505020005 | 20 | 175 | 3.2 | 9.7 | 0.00 | 0.00 | 0.00 | 62 | 1004.7 |
| 20260505020003 | 20 | 175 | 3.2 | 9.7 | 0.00 | 0.00 | 0.00 | 62 | 1004.1 |
| 20260505014502 | 20 | 186 | 3.2 | 8.0 | 0.00 | 0.00 | 0.00 | 62 | 1004.6 |
| 20260505013003 | 20 | 203 | 1.6 | 6.4 | 0.00 | 0.00 | 0.00 | 61 | 1004.4 |
| 20260505013001 | 20 | 203 | 1.6 | 6.4 | 0.00 | 0.00 | 0.00 | 61 | 1003.9 |
| 20260505011502 | 20 | 185 | 1.6 | 8.0 | 0.00 | 0.00 | 0.00 | 60 | 1004.3 |
| 20260505010005 | 21 | 138 | 3.2 | 9.7 | 0.00 | 0.00 | 0.00 | 59 | 1004.3 |
| 20260505010003 | 21 | 138 | 0.0 | 9.7 | 0.00 | 0.00 | 0.00 | 59 | 1003.9 |
| 20260505004502 | 21 | 236 | 3.2 | 9.7 | 0.00 | 0.00 | 0.00 | 58 | 1004.3 |
| 20260505003002 | 21 | 169 | 1.6 | 6.4 | 0.00 | 0.00 | 0.00 | 56 | 1004.3 |
| 20260505003000 | 21 | 169 | 1.6 | 6.4 | 0.00 | 0.00 | 0.00 | 56 | 1003.8 |
| 20260505001501 | 21 | 145 | 0.0 | 12.9 | 0.00 | 0.00 | 0.00 | 55 | 1004.0 |
| 20260505000003 | 22 | 138 | 1.6 | 9.7 | 0.00 | 0.00 | 0.00 | 53 | 1004.7 |
| 20260504234501 | 22 | 238 | 4.8 | 14.5 | 0.00 | 0.00 | 0.00 | 51 | 1004.8 |
| 20260504233002 | 23 | 271 | 4.8 | 14.5 | 0.00 | 0.00 | 0.00 | 49 | 1004.9 |
| 20260504231501 | 23 | 243 | 6.4 | 20.9 | 0.00 | 0.00 | 0.00 | 51 | 1004.9 |
| 20260504230005 | 23 | 287 | 6.4 | 19.3 | 0.00 | 0.00 | 0.00 | 50 | 1004.9 |
| 20260504230003 | 23 | 287 | 6.4 | 19.3 | 0.00 | 0.00 | 0.00 | 50 | 1004.4 |
| 20260504224502 | 23 | 257 | 6.4 | 24.1 | 0.00 | 0.00 | 0.00 | 52 | 1005.1 |
| 20260504224500 | 23 | 257 | 6.4 | 24.1 | 0.00 | 0.00 | 0.00 | 52 | 1004.6 |
| 20260504223002 | 23 | 253 | 1.6 | 12.9 | 0.00 | 0.00 | 0.00 | 57 | 1004.6 |
| 20260504221502 | 23 | 182 | 3.2 | 12.9 | 0.00 | 0.00 | 0.00 | 56 | 1005.1 |
| 20260504221500 | 23 | 182 | 3.2 | 12.9 | 0.00 | 0.00 | 0.00 | 56 | 1004.7 |
| 20260504220004 | 23 | 249 | 4.8 | 11.3 | 0.00 | 0.00 | 0.00 | 55 | 1005.1 |
| 20260504214502 | 23 | 243 | 1.6 | 6.4 | 0.00 | 0.00 | 0.00 | 56 | 1005.6 |
| 20260504214500 | 23 | 243 | 0.0 | 6.4 | 0.00 | 0.00 | 0.00 | 56 | 1005.2 |
| 20260504213002 | 23 | 243 | 3.2 | 8.0 | 0.00 | 0.00 | 0.00 | 54 | 1005.8 |
| 20260504211502 | 23 | 159 | 4.8 | 12.9 | 0.00 | 0.00 | 0.00 | 54 | 1005.9 |
| 20260504210004 | 23 | 153 | 4.8 | 14.5 | 0.00 | 0.00 | 0.00 | 53 | 1006.0 |
| 20260504210002 | 23 | 153 | 4.8 | 14.5 | 0.00 | 0.00 | 0.00 | 53 | 1005.6 |
| 20260504204502 | 23 | 259 | 4.8 | 17.7 | 0.00 | 0.00 | 0.00 | 53 | 1006.2 |
| 20260504204500 | 23 | 259 | 4.8 | 17.7 | 0.00 | 0.00 | 0.00 | 53 | 1005.9 |
| 20260504203003 | 23 | 236 | 4.8 | 12.9 | 0.00 | 0.00 | 0.00 | 51 | 1006.5 |
| 20260504203001 | 23 | 236 | 6.4 | 12.9 | 0.00 | 0.00 | 0.00 | 51 | 1006.1 |
| 20260504201504 | 23 | 250 | 6.4 | 17.7 | 0.00 | 0.00 | 0.00 | 56 | 1006.7 |
| 20260504201501 | 23 | 250 | 3.2 | 17.7 | 0.00 | 0.00 | 0.00 | 56 | 1006.3 |
| 20260504200008 | 23 | 276 | 4.8 | 11.3 | 0.00 | 0.00 | 0.00 | 55 | 1006.5 |
| 20260504200005 | 23 | 276 | 4.8 | 11.3 | 0.00 | 0.00 | 0.00 | 55 | 1006.9 |